カタログに戻る

STARLINK-3966

運用中通信VLEO
NORAD 52552·PAYLOAD·🇺🇸 United States

打ち上げ May 13, 2022 から Vandenberg Space Force Base

Loading…

次のパス (今後24時間)

TLE

最新Source: CelesTrak SupGP

元期: Sep 14, 2026, 20:55 UTC

1 52552C 22051V   26257.87201389 -.00031773  00000+0 -10226-2 0  2571
2 52552  53.1593 347.9931 0000954  66.1463 136.2531 15.31692407    17

AllMySatでSTARLINK-3966をリアルタイム追跡

Download on the App Store